South St. Paul, MN

5:03 PM CDT on September 21, 2019 (GMT -0500)
South Saint Paul Municipal-Fleming

Weather History for KSGS - August, 2019

Change the Weather History Date:

Sunday, August 18, 2019

  Actual Average (KSTP) Record (KSTP)
Temperature  
Mean Temperature 67 °F -  
Max Temperature 74 °F 78 °F 97 °F (2003)
Min Temperature 60 °F 58 °F 48 °F (2002)
Cooling Degree Days 2    
Growing Degree Days 17 (Base 50)    
Moisture  
Dew Point 58 °F    
Average Humidity 73    
Maximum Humidity 99    
Minimum Humidity 39    
Precipitation  
Precipitation 0.14 in - - ()
Sea Level Pressure  
Sea Level Pressure 29.77 in    
Wind  
Wind Speed 7 mph (WNW)    
Max Wind Speed 16 mph    
Max Gust Speed 22 mph    
Visibility 9 miles    
Events Rain , Thunderstorm    
Averages and records for this station are not official NWS values.
T = Trace of Precipitation, MM = Missing Value Source: NWS Daily Summary

Daily Weather History Graph

Daily Weather History Graph

Search for Another Location

Airport or City:

Astronomy

Aug. 18, 2019 Rise Set
Actual Time 6:17 AM CDT 8:13 PM CDT
Civil Twilight 5:45 AM CDT 8:45 PM CDT
Nautical Twilight 5:07 AM CDT 9:23 PM CDT
Astronomical Twilight 4:24 AM CDT 10:05 PM CDT
Moon 10:01 PM CDT (8/18) 9:08 AM CDT (8/18)
Length of Visible Light 14h 59m
Length of Day
13h 56m
Waning Gibbous, 91% of the Moon is Illuminated
Aug 18
Waning Gibbous
Aug 23
Last Quarter
Aug 30
New
Sep 5
First Quarter
Sep 13
Full

Hourly Weather History & Observations

Time (CDT) Temp. Dew Point Humidity Pressure Visibility Wind Dir Wind Speed Gust Speed Precip Events Conditions
12:15 AM 71.2 °F 65.3 °F 81% 29.71 in 10.0 mi SSE 5.8 mph - N/A   Mostly Cloudy
12:35 AM 70.7 °F 66.4 °F 86% 29.71 in 10.0 mi SSE 3.5 mph - N/A   Mostly Cloudy
12:36 AM 70.7 °F 66.4 °F 86% 29.71 in 10.0 mi SE 3.5 mph - N/A   Mostly Cloudy
12:55 AM 70.2 °F 67.1 °F 90% 29.70 in 7.0 mi SSE 4.6 mph - N/A Rain , Thunderstorm Light Thunderstorms and Rain
1:15 AM 69.3 °F 68.0 °F 96% 29.67 in 5.0 mi SE 5.8 mph - N/A Rain , Thunderstorm Thunderstorms and Rain
1:16 AM 69.3 °F 68.0 °F 96% 29.67 in 7.0 mi ESE 4.6 mph - N/A Rain Rain
1:35 AM 69.3 °F 68.0 °F 96% 29.64 in 10.0 mi SE 6.9 mph - N/A Thunderstorm Overcast
1:55 AM 69.6 °F 68.0 °F 95% 29.63 in 10.0 mi ESE 4.6 mph - N/A   Overcast
1:56 AM 69.6 °F 68.0 °F 95% 29.63 in 10.0 mi ESE 4.6 mph - N/A   Overcast
2:15 AM 69.8 °F 68.0 °F 94% 29.63 in 10.0 mi SSE 3.5 mph - 0.03 in Thunderstorm Thunderstorm
2:16 AM 69.8 °F 68.2 °F 95% 29.64 in 10.0 mi Calm Calm - 0.03 in Thunderstorm Thunderstorm
2:35 AM 67.6 °F 64.0 °F 88% 29.62 in 10.0 mi North 15.0 mph 20.7 mph 0.03 in Rain Light Rain
2:36 AM 67.6 °F 64.0 °F 88% 29.61 in 10.0 mi North 16.1 mph 21.9 mph 0.03 in Rain Light Rain
2:55 AM 66.6 °F 65.1 °F 95% 29.59 in 2.0 mi North 9.2 mph 21.9 mph N/A Rain Heavy Rain
2:56 AM 66.4 °F 65.1 °F 96% 29.59 in 2.0 mi North 9.2 mph 21.9 mph N/A Rain Heavy Rain
3:15 AM 65.3 °F 64.6 °F 98% 29.65 in 2.5 mi WSW 9.2 mph 21.9 mph N/A Rain , Thunderstorm Rain
3:35 AM 64.9 °F 64.4 °F 98% 29.65 in 3.0 mi West 5.8 mph - N/A Rain , Thunderstorm Thunderstorms and Rain
3:36 AM 64.9 °F 64.4 °F 98% 29.65 in 3.0 mi West 4.6 mph - N/A Rain , Thunderstorm Thunderstorms and Rain
3:55 AM 64.6 °F 64.2 °F 99% 29.66 in 3.0 mi NW 9.2 mph - N/A Rain Rain
3:56 AM 64.8 °F 64.2 °F 98% 29.66 in 3.0 mi NW 10.4 mph - N/A Rain Rain
4:15 AM 64.6 °F 63.9 °F 98% 29.63 in 5.0 mi NNW 6.9 mph - N/A Rain Rain
4:35 AM 64.6 °F 63.9 °F 98% 29.57 in 10.0 mi NNE 5.8 mph - N/A Rain Light Rain
4:55 AM 64.6 °F 63.9 °F 98% 29.57 in 10.0 mi NNE 5.8 mph - N/A Rain Light Rain
5:15 AM 64.8 °F 63.7 °F 96% 29.56 in 10.0 mi North 3.5 mph - 0.10 in Rain Light Rain
5:35 AM 64.8 °F 63.9 °F 97% 29.59 in 10.0 mi WNW 10.4 mph - N/A   Scattered Clouds
5:36 AM 64.8 °F 63.9 °F 97% 29.58 in 10.0 mi West 11.5 mph - N/A   Scattered Clouds
5:55 AM 64.8 °F 63.9 °F 97% 29.62 in 10.0 mi WNW 9.2 mph - N/A   Scattered Clouds
5:56 AM 64.8 °F 63.9 °F 97% 29.62 in 10.0 mi WNW 9.2 mph - N/A   Scattered Clouds
6:15 AM 64.8 °F 64.0 °F 98% 29.66 in 10.0 mi WNW 9.2 mph - 0.01 in   Scattered Clouds
6:35 AM 64.8 °F 64.0 °F 98% 29.68 in 10.0 mi West 10.4 mph - 0.01 in   Mostly Cloudy
6:36 AM 64.8 °F 64.0 °F 98% 29.68 in 10.0 mi West 10.4 mph - 0.01 in   Mostly Cloudy
6:55 AM 64.6 °F 63.9 °F 98% 29.70 in 10.0 mi West 9.2 mph - 0.01 in   Scattered Clouds
7:15 AM 64.8 °F 63.9 °F 97% 29.71 in 10.0 mi West 5.8 mph - N/A   Mostly Cloudy
7:35 AM 64.9 °F 64.0 °F 97% 29.72 in 10.0 mi WNW 4.6 mph - N/A   Mostly Cloudy
7:36 AM 64.9 °F 64.0 °F 97% 29.72 in 10.0 mi WNW 4.6 mph - N/A   Mostly Cloudy
7:55 AM 65.1 °F 63.9 °F 96% 29.73 in 10.0 mi West 4.6 mph - N/A   Overcast
7:56 AM 65.1 °F 64.0 °F 96% 29.73 in 10.0 mi West 5.8 mph - N/A   Overcast
8:15 AM 65.3 °F 63.9 °F 95% 29.74 in 10.0 mi West 8.1 mph - N/A   Mostly Cloudy
8:16 AM 65.3 °F 63.7 °F 94% 29.75 in 10.0 mi West 8.1 mph - N/A   Mostly Cloudy
8:35 AM 65.8 °F 63.5 °F 92% 29.75 in 10.0 mi West 10.4 mph - N/A   Scattered Clouds
8:55 AM 65.8 °F 63.3 °F 92% 29.77 in 10.0 mi West 8.1 mph - N/A   Mostly Cloudy
8:56 AM 65.8 °F 63.1 °F 91% 29.77 in 10.0 mi West 8.1 mph - N/A   Mostly Cloudy
9:15 AM 66.9 °F 63.0 °F 87% 29.77 in 10.0 mi WNW 5.8 mph - N/A   Mostly Cloudy
9:35 AM 67.1 °F 63.1 °F 87% 29.78 in 10.0 mi West 6.9 mph - N/A   Scattered Clouds
9:55 AM 67.1 °F 62.6 °F 85% 29.79 in 10.0 mi West 8.1 mph - N/A   Mostly Cloudy
10:15 AM 67.8 °F 63.0 °F 84% 29.79 in 10.0 mi West 8.1 mph - N/A   Mostly Cloudy
10:35 AM 69.4 °F 63.1 °F 80% 29.80 in 10.0 mi West 8.1 mph - N/A   Mostly Cloudy
10:36 AM 69.3 °F 63.1 °F 81% 29.80 in 10.0 mi West 8.1 mph - N/A   Mostly Cloudy
10:55 AM 68.9 °F 63.1 °F 82% 29.80 in 10.0 mi WSW 11.5 mph - N/A   Scattered Clouds
11:15 AM 69.8 °F 62.1 °F 76% 29.80 in 10.0 mi West 8.1 mph - N/A   Scattered Clouds
11:16 AM 69.8 °F 62.1 °F 76% 29.80 in 10.0 mi West 8.1 mph - N/A   Scattered Clouds
11:35 AM 70.9 °F 62.8 °F 75% 29.80 in 10.0 mi West 9.2 mph - N/A   Scattered Clouds
11:55 AM 71.6 °F 61.9 °F 71% 29.80 in 10.0 mi WNW 11.5 mph - N/A   Clear
12:15 PM 71.4 °F 59.7 °F 66% 29.80 in 10.0 mi West 10.4 mph 17.3 mph N/A   Mostly Cloudy
12:35 PM 74.1 °F 58.8 °F 59% 29.81 in 10.0 mi West 10.4 mph 18.4 mph N/A   Scattered Clouds
12:55 PM 72.0 °F 59.7 °F 65% 29.82 in 10.0 mi WNW 13.8 mph 19.6 mph N/A   Mostly Cloudy
12:56 PM 72.1 °F 59.4 °F 64% 29.81 in 10.0 mi WNW 15.0 mph 19.6 mph N/A   Mostly Cloudy
1:15 PM 73.0 °F 57.4 °F 58% 29.82 in 10.0 mi West 16.1 mph 19.6 mph N/A   Scattered Clouds
1:35 PM 73.4 °F 57.6 °F 58% 29.82 in 10.0 mi West 10.4 mph - N/A   Scattered Clouds
1:36 PM 73.4 °F 57.7 °F 58% 29.82 in 10.0 mi West 11.5 mph - N/A   Scattered Clouds
1:55 PM 73.2 °F 55.9 °F 55% 29.83 in 10.0 mi WNW 11.5 mph 18.4 mph N/A   Clear
2:15 PM 73.4 °F 54.3 °F 51% 29.83 in 10.0 mi West 12.7 mph 20.7 mph N/A   Scattered Clouds
2:35 PM 72.7 °F 53.2 °F 50% 29.83 in 10.0 mi WNW 10.4 mph 21.9 mph N/A   Clear
2:55 PM 73.9 °F 54.0 °F 50% 29.83 in 10.0 mi WNW 10.4 mph 18.4 mph N/A   Scattered Clouds
3:15 PM 74.1 °F 52.2 °F 46% 29.84 in 10.0 mi WNW 12.7 mph 19.6 mph N/A   Scattered Clouds
3:16 PM 74.1 °F 52.3 °F 46% 29.84 in 10.0 mi West 13.8 mph 19.6 mph N/A   Scattered Clouds
3:35 PM 73.6 °F 51.8 °F 46% 29.84 in 10.0 mi West 13.8 mph - N/A   Clear
3:36 PM 73.6 °F 51.8 °F 46% 29.84 in 10.0 mi West 11.5 mph 17.3 mph N/A   Clear
3:55 PM 73.8 °F 50.9 °F 45% 29.84 in 7.0 mi NW 11.5 mph 21.9 mph N/A   Clear
4:15 PM 73.9 °F 51.3 °F 45% 29.84 in 10.0 mi West 9.2 mph - N/A   Clear
4:16 PM 74.1 °F 51.4 °F 45% 29.84 in 10.0 mi West 11.5 mph - N/A   Clear
4:35 PM 73.6 °F 50.2 °F 44% 29.85 in 10.0 mi NW 11.5 mph 19.6 mph N/A   Clear
4:55 PM 74.3 °F 51.3 °F 44% 29.85 in 10.0 mi WNW 5.8 mph - N/A   Clear
4:56 PM 74.3 °F 51.6 °F 45% 29.85 in 10.0 mi WNW 6.9 mph - N/A   Clear
5:15 PM 74.5 °F 50.7 °F 43% 29.85 in 10.0 mi WNW 9.2 mph - N/A   Scattered Clouds
5:35 PM 74.1 °F 49.5 °F 42% 29.85 in 10.0 mi NW 6.9 mph - N/A   Clear
5:36 PM 74.3 °F 49.6 °F 42% 29.85 in 10.0 mi WNW 6.9 mph - N/A   Clear
5:55 PM 73.8 °F 48.7 °F 41% 29.86 in 10.0 mi NW 6.9 mph - N/A   Clear
5:56 PM 73.8 °F 48.6 °F 41% 29.86 in 10.0 mi WNW 6.9 mph - N/A   Clear
6:15 PM 73.6 °F 47.5 °F 39% 29.86 in 10.0 mi West 8.1 mph - N/A   Clear
6:16 PM 73.4 °F 47.7 °F 40% 29.86 in 10.0 mi WNW 8.1 mph - N/A   Clear
6:35 PM 73.2 °F 47.5 °F 40% 29.86 in 10.0 mi WNW 9.2 mph - N/A   Clear
6:55 PM 72.7 °F 48.6 °F 42% 29.86 in 10.0 mi WNW 5.8 mph - N/A   Clear
7:15 PM 72.0 °F 49.6 °F 45% 29.87 in 10.0 mi WNW 6.9 mph - N/A   Clear
7:35 PM 71.1 °F 47.3 °F 43% 29.86 in 10.0 mi WNW 5.8 mph - N/A   Clear
7:55 PM 70.0 °F 48.2 °F 46% 29.87 in 10.0 mi West 3.5 mph - N/A   Clear
8:15 PM 68.0 °F 49.5 °F 51% 29.88 in 10.0 mi West 4.6 mph - N/A   Clear
8:35 PM 67.1 °F 49.6 °F 53% 29.88 in 10.0 mi West 4.6 mph - N/A   Clear
8:55 PM 66.7 °F 49.1 °F 53% 29.89 in 10.0 mi West 3.5 mph - N/A   Clear
9:15 PM 66.2 °F 49.3 °F 54% 29.90 in 10.0 mi West 4.6 mph - N/A   Clear
9:35 PM 65.5 °F 49.8 °F 57% 29.90 in 10.0 mi West 3.5 mph - N/A   Clear
9:36 PM 65.3 °F 49.8 °F 57% 29.90 in 10.0 mi West 3.5 mph - N/A   Clear
9:55 PM 63.9 °F 50.7 °F 62% 29.91 in 10.0 mi West 3.5 mph - N/A   Clear
9:56 PM 63.9 °F 50.7 °F 62% 29.91 in 10.0 mi West 3.5 mph - N/A   Clear
10:15 PM 63.7 °F 50.9 °F 63% 29.91 in 10.0 mi West 4.6 mph - N/A   Clear
10:16 PM 63.7 °F 50.9 °F 63% 29.91 in 10.0 mi West 4.6 mph - N/A   Clear
10:35 PM 63.9 °F 50.9 °F 63% 29.92 in 10.0 mi Calm Calm - N/A   Clear
10:55 PM 63.0 °F 50.9 °F 65% 29.92 in 10.0 mi Calm Calm - N/A   Clear
10:56 PM 63.0 °F 50.9 °F 65% 29.92 in 10.0 mi Calm Calm - N/A   Clear
11:15 PM 62.1 °F 51.4 °F 68% 29.92 in 10.0 mi Calm Calm - N/A   Clear
11:16 PM 62.1 °F 51.4 °F 68% 29.92 in 10.0 mi Calm Calm - N/A   Clear
11:35 PM 60.8 °F 53.4 °F 77% 29.93 in 10.0 mi Calm Calm - N/A   Clear
11:55 PM 60.4 °F 53.8 °F 79% 29.93 in 10.0 mi Calm Calm - N/A   Clear